Regional Weather Roundup
Issued by NWS

Home | Current Version | Previous Version | Graphics & Text | Print | Product List | Glossary Off
Versions: 1 2 3 4 5 6 7 8 9 10 11 12 13 14 15 16 17 18 19 20 21 22 23 24 25 26 27 28 29 30 31 32 33 34 35 36 37 38 39 40 41 42 43 44 45 46 47 48 49

000
ASUS43 KDMX 181107
RWRIA

WEATHER ROUNDUP FOR IOWA
NATIONAL WEATHER SERVICE DES MOINES IA
600 AM CDT THU SEP 18 2014

NOTE: "FAIR" INDICATES FEW OR NO CLOUDS BELOW 12,000 FEET WITH NO
SIGNIFICANT WEATHER AND/OR OBSTRUCTIONS TO VISIBILITY.

* - THESE STATIONS ARE NOT NWS STATIONS...THUS NOT UNDER NWS
QUALITY CONTROL.  THEY ALSO DO NOT REPORT WEATHER SUCH
AS PRECIPITATION OR FOG.

IAZ001>003-012>014-020>022-031>034-043>046-181200-
   NORTHWEST IOWA

CITY           SKY/WX    TMP DP  RH WIND       PRES   REMARKS
CARROLL *      FOG       46  46 100 CALM      30.02R VSB 1/4
CHEROKEE *     CLEAR     52  52 100 CALM      30.01R
DENISON *      CLEAR     54  54 100 CALM      30.00R
LE MARS *        N/A     54  54 100 CALM      30.00S
ORANGE CITY *  PTCLDY    57  54  88 E5        30.00S
SHELDON *      CLOUDY    52  52 100 SE3       30.00R
SIOUX CITY     CLOUDY    58  56  93 SE7       29.99R
SPENCER        PTCLDY    47  45  93 E5        30.02S
STORM LAKE *   CLEAR     52  52 100 SE6       30.02R FOG
$$

IAZ055>058-069>071-079>083-090>094-181200-
   SOUTHWEST IOWA

CITY           SKY/WX    TMP DP  RH WIND       PRES   REMARKS
ATLANTIC *     FOG       55  55 100 CALM      30.02R VSB 0
AUDUBON *      HAZE      48  45  87 CALM      30.03R VSB 1/4
CLARINDA *     CLOUDY    63  61  94 VRB3      30.02F
COUNCIL BLFS * CLOUDY    59  59 100 SE7       30.00R FOG
CRESTON *      FOG       57  57 100 SE8       30.03S VSB 1/4
HARLAN  *      PTCLDY    52  52 100 CALM      30.05R FOG
LAMONI         FOG       57  57 100 CALM      30.03R VSB 1/4
SHENANDOAH *   CLOUDY    63  61  94 SE6       30.01F
$$

IAZ047>049-059>061-072>074-084-181200-
   CENTRAL IOWA

CITY           SKY/WX    TMP DP  RH WIND       PRES   REMARKS
AMES           FOG       48  48 100 CALM      30.04R VSB 1/4
ANKENY *       FOG       50  50 100 CALM      30.04R VSB 0
CHARITON *     FOG       54  54 100 SE5       30.03S VSB 0
DES MOINES     MOCLDY    58  55  90 SE5       30.04R
GRINNELL*      FOG       50  48  93 CALM      30.06R VSB 3/4
KNOXVILLE *    FOG       52  52 100 E5        30.03R VSB 1/4
MARSHALLTOWN   CLEAR     47  47 100 E6        30.04R FOG
PELLA *          N/A     52  52 100 CALM      30.06R FOG
PERRY *        FOG       54  52  94 SE3       30.03R VSB 1/4
$$

IAZ004>006-015-016-023>025-035-036-181200-
   NORTH CENTRAL IOWA

CITY           SKY/WX    TMP DP  RH WIND       PRES   REMARKS
ALGONA *       CLEAR     52  50  93 SE5       30.03R
CLARION *        N/A     52  52 100 SE6       30.03S
ESTHERVILLE    FOG       47  47 100 CALM      30.02S VSB 3/4
FORT DODGE *   CLEAR     48  46  93 E6        30.03R
MASON CITY     FOG       43  43 100 CALM      30.06R VSB 3/4
FOREST CITY *    N/A     45  45 100 CALM      30.04S FOG
IOWA FALLS *   FOG       46  46 100 CALM      30.05R VSB 1/4
$$

IAZ007>011-017>019-026>030-037>042-050>054-066-181200-
   NORTHEAST IOWA

CITY           SKY/WX    TMP DP  RH WIND       PRES   REMARKS
CEDAR RAPIDS   CLEAR     50  50 100 NE5       30.05R
CHARLES CITY * CLEAR     48  46  93 E6        30.06R
CLINTON *      CLEAR     46  45  93 NE5       30.09R
DECORAH *      CLEAR     46  46 100 CALM      30.06R FOG
DUBUQUE        CLEAR     46  46 100 CALM      30.07R FOG
MONTICELLO *   CLEAR     43  43 100 CALM      30.06R FOG
OELWEIN *      CLEAR     46  46 100 E5        30.07R
WATERLOO       CLEAR     45  44  97 CALM      30.05R
$$

IAZ064-065-067-068-078-181200-
   EAST CENTRAL IOWA

CITY           SKY/WX    TMP DP  RH WIND       PRES   REMARKS
DAVENPORT      CLEAR     48  45  89 E3        30.06R FOG
IOWA CITY      CLEAR     46  46 100 CALM      30.07R
MT. PLEASANT * CLEAR     48  46  93 CALM      30.06R FOG
MUSCATINE *    FOG       46  46 100 CALM      30.06R VSB 0
QUAD CITIES    CLEAR     45  43  93 E5        30.06R
$$

IAZ062-063-075>077-085>089-095>099-181200-
   SOUTHEAST IOWA

CITY           SKY/WX    TMP DP  RH WIND       PRES   REMARKS
BURLINGTON     LGT RAIN  52  51  97 NE5       30.05R
FAIRFIELD *    FOG       46  46 100 CALM      30.05R VSB 1/4
FORT MADISON * FOG       50  50 100 CALM      30.06R VSB 1/4
KEOKUK *       FOG       48  48 100 CALM      30.04R VSB 0
OSKALOOSA *    FOG       46  46 100 E6        30.05R VSB 1/2
CENTERVILLE *  FOG       50  50 100 E3        30.05S VSB 1/2
OTTUMWA        CLEAR     47  46  97 E5        30.05R FOG
WASHINGTON *   FOG       46  46 100 CALM      30.06R VSB 0
$$

ABBREVIATIONS USED IN REMARKS
   TC - TEMPERATURES IN CELSIUS
  WCI - WIND CHILL INDEX
   HX - HEAT INDEX
  VSB - VISIBILITY
$$




USA.gov is the U.S. government's official web portal to all federal, state and local government web resources and services.